Location: *
(37.5724°S, 58.0067°E)
Time: 01:52:12
(UTC+00:00)

X-37B - Pass Details

Date: 30 November 2020
Orbit: 385 x 390 km, 45.0° (Epoch: 20 January)

Event Time Altitude Azimuth Distance (km) Brightness Sun altitude
Exits shadow 23:34:04 12° 354° (N) 1,329 2.9 -11.7°
Maximum altitude 23:36:11 20° 40° (NE) 978 2.6 -11.4°
Drops below altitude 10° 23:38:39 10° 89° (E) 1,440 4.3 -11.0°
Sets 23:41:05 0° 106° (ESE) 2,303 5.9 -10.6°
